469  
ASUS43 KIND 212310  
RWRIN  
 
WEATHER ROUNDUP FOR INDIANA  
NATIONAL WEATHER SERVICE INDIANAPOLIS IN  
700 PM EDT THU OCT 21 2021  
 
NOTE: "FAIR" INDICATES FEW OR NO CLOUDS BELOW 12,000 FEET WITH NO  
SIGNIFICANT WEATHER AND/OR S TO VISIBILITY
.  
 
* - STATION DOES NOT REPORT WEATHER SUCH AS PRECIPITATION OR FOG.
 
 
+ - STATION NOT QUALITY CONTROLLED BY THE NATIONAL WEATHER SERVICE.  
USE DATA WITH CAUTION...ESPECIALLY DEWPOINT AND RELATIVE  
HUMIDITY OBSERVATIONS.  
 
INZ001>003-010>013-019-020-220000-  
NORTHWEST INDIANA  
 
CITY SKY/WX TMP DP RH WIND PRES REMARKS
 
GARY /AIRPORT/ CLOUDY 54 46 76 W12 29.92F  
KNOX *+ CLOUDY 50 46 87 W9 29.97R  
LA PORTE + DRIZZLE 51 51 99 W5 29.96R  
MICHIGAN CITY+ LGT RAIN 52 50 93 N9 29.97R  
MONTICELLO + CLOUDY 52 45 76 W12G18 29.99R  
RENSSELAER + CLOUDY 52 45 76 SW13 30.00R  
VALPARAISO CLOUDY 52 46 80 W8 29.98R  
 

 
 
LMZ046-743>745-220000-  
SOUTHERN LAKE MICHIGAN  
 
STATION/POSITION TIME TEMP WIND PRES
 
AIR DIR/SP/G  
(UTC) (F) (DEG/KT/KT) (MB)  
BURNS HARBOR 2230 56 320/ 8/ 11 1014.9R  
MICHIGAN CITY 2240 55 350/ 24/ 25 1015.0R  
 

 
 
INZ004-005-014>016-021>024-220000-  
NORTH CENTRAL INDIANA  
 
CITY SKY/WX TMP DP RH WIND PRES REMARKS
 
GOSHEN CLOUDY 50 48 93 W14 29.92R FOG  
LOGANSPORT + CLOUDY 52 45 76 MISG 29.99R  
PERU/GRISSOM CLOUDY 52 44 74 W15G23 29.97R  
ROCHESTER + CLOUDY 54 45 71 W9 29.97R  
SOUTH BEND CLOUDY 53 50 89 NW15 29.94R  
WARSAW + CLOUDY 50 45 81 W16G23 29.94R  
 

 
 
INZ006>009-017-018-025>027-220000-  
NORTHEAST INDIANA  
 
CITY SKY/WX TMP DP RH WIND PRES REMARKS
 
ANGOLA *+ CLOUDY 50 46 87 W12G20 29.88R  
AUBURN + CLOUDY 52 45 76 W13G22 29.91S  
FORT WAYNE CLOUDY 52 44 74 W17G23 29.94R  
KENDALLVILLE + CLOUDY 50 47 87 W17G26 29.91R  
 

 
 
INZ028-029-035-036-043>045-051>053-220000-  
WEST CENTRAL INDIANA  
 
CITY SKY/WX TMP DP RH WIND PRES REMARKS
 
CRAWFORDSVL + CLOUDY 50 39 67 W14 30.03R  
LAFAYETTE CLOUDY 51 45 79 W9 30.01R  
TERRE HAUTE CLOUDY 54 44 69 W6 30.05R  
 

 
 
INZ030>032-037>040-046>048-054>057-064-065-220000-  
CENTRAL INDIANA  
 
CITY SKY/WX TMP DP RH WIND PRES REMARKS
 
ANDERSON CLOUDY 53 42 65 W8G17 30.00R  
FRANKFORT + CLOUDY 52 45 76 W15G22 30.00S  
INDIANAPOLIS CLOUDY 53 43 68 W14G24 30.02R  
-EAGLE CREEK CLOUDY 54 44 69 W9G17 30.01R  
KOKOMO + CLOUDY 52 46 80 W17G24 29.99R  
MT COMFORT *+ CLOUDY 54 45 71 W17G23 30.00S  
SHELBYVILLE MOCLDY 57 44 62 W14G21 30.00R  
ZIONSVILLE + CLOUDY 51 44 75 W12 30.01R  
 

 
 
INZ033-034-041-042-049-050-058-059-220000-  
EAST CENTRAL INDIANA  
 
CITY SKY/WX TMP DP RH WIND PRES REMARKS
 
MUNCIE CLOUDY 55 44 66 W14G23 29.97R  
 

 
 
INZ060-061-067>069-081>083-085>088-220000-  
SOUTHWEST INDIANA  
 
CITY SKY/WX TMP DP RH WIND PRES REMARKS
 
EVANSVILLE CLEAR 57 44 62 NW8G21 30.07R  
HUNTINGBURG *+ CLEAR 56 45 66 NW8G17 30.05R  
WASHINGTON + CLOUDY 55 44 66 W7 30.05S  
 

 
 
INZ062-063-066-070>080-084-089>092-220000-  
SOUTH CENTRAL AND SOUTHEAST INDIANA  
 
CITY SKY/WX TMP DP RH WIND PRES REMARKS
 
BLOOMINGTON CLOUDY 54 44 69 W5 30.03R  
MADISON *+ PTCLDY 57 45 62 NW6 30.02R  
 

 
 
 
 
CLICK HERE TO GO TO PREVIOUS BULLETINS.

The Nexlab IN Page Main Text Page